Location: ?p Dangia
(12.0167°N, 108.4333°E)
Time: 11:23:19
(UTC+00:00)

GPS 2-12 Rocket1 - Pass Details

Date: 07 June 2020
Orbit: 586 x 652 km, 20.0° (Epoch: 14 July)

Event Time Altitude Azimuth Distance (km) Brightness Sun altitude
Rises 11:46:29 0° 292° (WNW) 2,857 8.9 -9.0°
Reaches altitude 10° 11:48:58 10° 301° (WNW) 1,941 7.3 -9.6°
Maximum altitude 11:53:12 38° 9° (N) 913 4.1 -10.5°
Drops below altitude 10° 11:57:21 10° 78° (ENE) 1,908 5.1 -11.4°
Enters shadow 11:57:26 10° 78° (ENE) 1,934 5.1 -11.4°
